Location: Sternwarte ZA, Rosenfeld-Brittheim
(48.2889°N, 8.6789°E)
Time: 03:01:26
(UTC+02:00)

ISS - Pass Details

Date: 09 July 2020
Orbit: 417 x 421 km, 51.6° (Epoch: 08 July)

Event Time Altitude Azimuth Distance (km) Brightness Sun altitude
Exits shadow 02:38:18 35° 260° (W) 695 -2.9 -17.8°
Maximum altitude 02:39:34 77° 339° (NNW) 434 -3.7 -17.7°
Drops below altitude 10° 02:42:56 10° 67° (ENE) 1,499 -0.4 -17.6°
Sets 02:45:02 0° 69° (ENE) 2,364 0.6 -17.4°
